Regional Weather Roundup
Issued by NWS

Home | Current Version | Previous Version | Graphics & Text | Print | Product List | Glossary On
Versions: 1 2 3 4 5 6 7 8 9 10 11 12 13 14 15 16 17 18 19 20 21 22 23 24 25 26 27 28 29 30 31 32 33 34 35 36 37 38 39 40 41 42 43 44 45 46 47 48 49 50
000
ASUS43 KMKX 260611
RWRWI

WISCONSIN REGIONAL WEATHER ROUNDUP
NATIONAL WEATHER SERVICE MILWAUKEE/SULLIVAN WI
1200 AM CST FRI DEC 26 2014

NOTE: "FAIR" INDICATES FEW OR NO CLOUDS BELOW 12,000 FEET WITH NO
SIGNIFICANT WEATHER AND/OR OBSTRUCTIONS TO VISIBILITY.

WIZ001-002-006>008-014>016-023>028-260700-
NORTHWEST WISCONSIN

CITY           SKY/WX    TMP DP  RH WIND       PRES   REMARKS
SUPERIOR ARPT  CLOUDY    32  28  88 CALM      29.93R
6HR MIN TEMP:  31; 6HR MAX TEMP:  33;

ASHLAND        LGT SNOW  31  30  96 CALM      29.92R FOG
6HR MIN TEMP:  31; 6HR MAX TEMP:  32; 6HR PCP: TRACE;

HAYWARD        LGT SNOW  30  29  96 N5        29.87F FOG     WCI  25
6HR MIN TEMP:  30; 6HR MAX TEMP:  32; 6HR PCP:  0.07;

SIREN          CLOUDY    31  31  99 NE5       29.89S FOG     WCI  26
6HR MIN TEMP:  31; 6HR MAX TEMP:  32;

CUMBERLAND     CLOUDY    30  28  93 NE3       29.86S FOG
RICE LAKE      CLOUDY    31  30  99 NE3       29.88F FOG
6HR MIN TEMP:  29; 6HR MAX TEMP:  32;

CHETEK         CLOUDY    30  29  97 NE5       29.87S FOG     WCI  25
6HR MIN TEMP:  29; 6HR MAX TEMP:  32;

LADYSMITH      CLOUDY    31  30  97 E3        29.89S FOG
6HR MIN TEMP:  29; 6HR MAX TEMP:  32;

EAU CLAIRE     MOCLDY    29  26  89 NE5       29.86S WCI  24
6HR MIN TEMP:  27; 6HR MAX TEMP:  33;

MENOMONIE      FAIR      30  29  96 CALM      29.86S FOG
6HR MIN TEMP:  30; 6HR MAX TEMP:  33;

NEW RICHMOND   CLOUDY    30  30 100 NE5       29.87S FOG     WCI  25
6HR MIN TEMP:  28; 6HR MAX TEMP:  32;

OSCEOLA        CLOUDY    32  32 100 CALM      29.90S FOG
6HR MIN TEMP:  30; 6HR MAX TEMP:  32;

$$

WIZ003>005-009-010-017-018-260700-
NORTH CENTRAL WISCONSIN

CITY           SKY/WX    TMP DP  RH WIND       PRES   REMARKS
MANITOWISH WTR LGT SNOW  28  28 100 CALM      29.87F
6HR MIN TEMP:  28; 6HR MAX TEMP:  29;

ARBOR VITAE    CLOUDY    32  30  94 CALM      29.87F FOG
6HR MIN TEMP:  32; 6HR MAX TEMP:  32;

WOODRUFF       CLOUDY    32  30  94 CALM      29.87F FOG
6HR MIN TEMP:  32; 6HR MAX TEMP:  32;

RHINELANDER    CLOUDY    28  27  96 CALM      29.87F FOG
6HR MIN TEMP:  28; 6HR MAX TEMP:  29; 6HR PCP:  0.02;

EAGLE RIVER    CLOUDY    29  29 100 CALM      29.87F FOG
6HR MIN TEMP:  29; 6HR MAX TEMP:  30;

LAND O LAKES   LGT SNOW  30  30  99 CALM      29.89S
6HR MIN TEMP:  30; 6HR MAX TEMP:  31;

PHILLIPS       CLOUDY    28  28  99 CALM      29.87F FOG
6HR MIN TEMP:  28; 6HR MAX TEMP:  30; 6HR PCP:  0.03;

TOMAHAWK       CLOUDY    29  28  96 CALM      29.88F FOG
6HR MIN TEMP:  28; 6HR MAX TEMP:  30;

MEDFORD        CLOUDY    28  27  94 E3        29.86S FOG
6HR MIN TEMP:  28; 6HR MAX TEMP:  30;

MERRILL        CLOUDY    28  28 100 CALM      29.88S FOG
6HR MIN TEMP:  26; 6HR MAX TEMP:  32;

$$

WIZ029-030-035-036-043>047-260700-
CENTRAL WISCONSIN

CITY           SKY/WX    TMP DP  RH WIND       PRES   REMARKS
WAUSAU         PTCLDY    29  27  92 E5        29.87F WCI  24
6HR MIN TEMP:  28; 6HR MAX TEMP:  32;

MOSINEE        PTCLDY    30  30 100 E5        29.88F WCI  25
MARSHFIELD     PTCLDY    28  26  92 E5        29.87F FOG     WCI  23
6HR MIN TEMP:  28; 6HR MAX TEMP:  32;

STEVENS POINT  PTCLDY    25  24  98 CALM      29.89F FOG
6HR MIN TEMP:  25; 6HR MAX TEMP:  29;

WAUPACA        MOCLDY    30  29  96 CALM      29.92S FOG
6HR MIN TEMP:  29; 6HR MAX TEMP:  33;

WAUTOMA        PTCLDY    27  27 100 CALM      29.91F FOG
6HR MIN TEMP:  27; 6HR MAX TEMP:  30; 6HR PCP:  0.01;

WISC RAPIDS    PTCLDY    27  25  92 CALM      29.89F FOG
6HR MIN TEMP:  26; 6HR MAX TEMP:  31;

CAMP DOUGLAS   PTCLDY    28  28 100 CALM      29.87
6HR MIN TEMP:  27; 6HR MAX TEMP:  31;

$$

WIZ011>013-019>022-031-037>040-048>050-260700-
NORTHEAST WISCONSIN

CITY           SKY/WX    TMP DP  RH WIND       PRES   REMARKS
ANTIGO         CLOUDY    26  26  99 S3        29.88S
6HR MIN TEMP:  23; 6HR MAX TEMP:  30;

SHAWANO        FOG       30  29  95 CALM      29.93R VSB<1/4
6HR MIN TEMP:  30; 6HR MAX TEMP:  35;

OCONTO         PTCLDY    27  27 100 CALM      29.93S
6HR MIN TEMP:  27; 6HR MAX TEMP:  34;

STURGEON BAY   PTCLDY    34  30  86 S6        29.96S WCI  29
6HR MIN TEMP:  34; 6HR MAX TEMP:  36;

GREEN BAY      MOCLDY    31  29  92 CALM      29.94S FOG
6HR MIN TEMP:  30; 6HR MAX TEMP:  34;

MANITOWOC      MOCLDY    32  30  92 CALM      29.95F
6HR MIN TEMP:  32; 6HR MAX TEMP:  37;

APPLETON       CLOUDY    32  32 100 SE5       29.93S FOG     WCI  27
CLINTONVILLE   PTCLDY    28  28 100 CALM      29.92S FOG
OSHKOSH        CLOUDY    36  32  85 S10       29.92S WCI  28
6HR MIN TEMP:  30; 6HR MAX TEMP:  37;

$$

WIZ032>034-041-042-053>061-260700-
SOUTHWEST WISCONSIN

CITY           SKY/WX    TMP DP  RH WIND       PRES   REMARKS
LA CROSSE      MOCLDY    33  29  85 SE6       29.84F WCI  28
6HR MIN TEMP:  29; 6HR MAX TEMP:  37;

SPARTA         MOCLDY    27  27 100 CALM      29.87F
6HR MIN TEMP:  26; 6HR MAX TEMP:  30;

VIROQUA        MOCLDY    36  34  94 SE9       29.83F WCI  29
6HR MIN TEMP:  35; 6HR MAX TEMP:  37;

BOSCOBEL       PTCLDY    39  32  76 S3        29.88F
6HR MIN TEMP:  32; 6HR MAX TEMP:  41;

PRAIRIE DU CHI PTCLDY    39  31  72 SE6       29.86F WCI  35
6HR MIN TEMP:  37; 6HR MAX TEMP:  42;

PLATTEVILLE    PTCLDY    37  34  87 S3        29.89F
6HR MIN TEMP:  37; 6HR MAX TEMP:  40;

$$

WIZ056-057-062-063-064-067-068-260700-
SOUTH CENTRAL WISCONSIN

CITY           SKY/WX    TMP DP  RH WIND       PRES   REMARKS
REEDSBURG      PTCLDY    38  33  82 S9        29.88F WCI  31
6HR MIN TEMP:  35; 6HR MAX TEMP:  38;

BARABOO/DELLS  PTCLDY    37  32  81 S9        29.89S WCI  31
6HR MIN TEMP:  36; 6HR MAX TEMP:  39;

LONE ROCK      PTCLDY    41  32  70 E7        29.89F
6HR MIN TEMP:  39; 6HR MAX TEMP:  44;

MINERAL POINT  PTCLDY    36  34  93 SE9       29.88F WCI  29
MADISON        CLOUDY    37  32  82 S7        29.92F WCI  32
6HR MIN TEMP:  37; 6HR MAX TEMP:  40;

MIDDLETON      CLOUDY    38  33  82 S10       29.91S WCI  32
6HR MIN TEMP:  38; 6HR MAX TEMP:  41;

WATERTOWN      CLOUDY    37  35  93 S7        29.93F WCI  31
6HR MIN TEMP:  37; 6HR MAX TEMP:  39;

MONROE         MOCLDY    36  34  93 S15       29.91S WCI  26
JANESVILLE     MOCLDY    39  32  75 S9        29.93F WCI  33
$$

WIZ051-052-058>065-066-070>072-260700-
SOUTHEAST WISCONSIN

CITY           SKY/WX    TMP DP  RH WIND       PRES   REMARKS
MILWAUKEE      CLOUDY    40  33  76 S12       29.97F WCI  33
6HR MIN TEMP:  39; 6HR MAX TEMP:  41;

WAUKESHA       CLOUDY    36  32  87 S10       29.96F WCI  28
MILWAUKEE/TIMM CLOUDY    39  32  75 SW9       29.97S WCI  33
RACINE         CLOUDY    40  33  76 S10       29.99F WCI  33
6HR MIN TEMP:  39; 6HR MAX TEMP:  41;

BURLINGTON     MOCLDY    37  32  83 S14       29.96F WCI  28
6HR MIN TEMP:  37; 6HR MAX TEMP:  38;

KENOSHA        CLOUDY    40  33  76 SW15      29.97F WCI  32
6HR MIN TEMP:  39; 6HR MAX TEMP:  41;

FOND DU LAC    CLOUDY    38  32  79 S10       29.93S WCI  31
6HR MIN TEMP:  34; 6HR MAX TEMP:  39;

SHEBOYGAN      CLOUDY    37  32  82 S7        29.95S WCI  32
6HR MIN TEMP:  33; 6HR MAX TEMP:  38;

WEST BEND      CLOUDY    37  32  81 S7        29.94F WCI  32
JUNEAU         CLOUDY    36  33  90 S8        29.94F WCI  29
6HR MIN TEMP:  35; 6HR MAX TEMP:  37;

$$

LSZ147-162-260700-
LAKE SUPERIOR

STATION/POSITION TIME  TEMP    WIND        PRES    WAVE
                       AIR SEA DIR/SP/G            HT/PER
                 (UTC) (F)     (DEG/KT/KT) (MB)    (FT/S)
DEVILS ISLAND    0600   35     340/  5/  5 1013.8R
PORT WING        0500   32     140/  1/  2 1013.2R
SAXON HARBOR     0500   32      CALM  /  3 1012.9S
$$

LMZ867-665-643>646-260700-
LAKE MICHIGAN

STATION/POSITION TIME  TEMP    WIND        PRES    WAVE



USA.gov is the U.S. government's official web portal to all federal, state and local government web resources and services.